Regional Weather Roundup
Issued by NWS

Home | Current Version | Previous Version | Graphics & Text | Print | Product List | Glossary On
Versions: 1 2 3 4 5 6 7 8 9 10 11 12 13 14 15 16 17 18 19 20 21 22 23 24 25 26 27 28 29 30 31 32 33 34 35 36 37 38 39 40 41 42 43 44 45 46 47 48 49 50
202
ASUS44 KJAN 182103
RWRMS

MISSISSIPPI HOURLY WEATHER ROUNDUP
NATIONAL WEATHER SERVICE JACKSON MS
400 PM CDT FRI APR 18 2014

NOTE: "FAIR: INDICATES FEW OR NO CLOUDS BELOW 12,000 FEET WITH NO
SIGNIFICANT WEATHER AND/OR OBSTRUCTIONS TO VISIBILITY.

MSZ001>002-007>008-010>013-018>021-025>028-034>036-182200-
NORTHWEST MISSISSIPPI

CITY           SKY/WX    TMP DP  RH WIND       PRES   REMARKS
CLARKSDALE       N/A     72  54  53 N13       30.16F
CLEVELAND      FAIR      73  54  51 N9        30.14F
GREENWOOD      CLOUDY    71  53  52 E10       30.14F
GREENVILLE     CLOUDY    71  52  50 NE13      30.14F
GRENADA        FAIR      68  55  64 E12       30.16F
OLIVE BRANCH   MOSUNNY   70  52  52 NE9       30.18F
OXFORD         FAIR      66  50  55 SE5       30.18F
TUNICA         CLEAR     72  50  46 N6        30.16F
$$

MSZ003>006-009-014>017-022>024-029>033-037>039-182200-
NORTHEAST MISSISSIPPI

CITY           SKY/WX    TMP DP  RH WIND       PRES   REMARKS
BELMONT        CLOUDY    61  53  76 NW3       30.19F
COLUMBUS AFB   PTSUNNY   67  54  63 N9        30.16F
CORINTH        MOCLDY    64  50  59 SE3       30.18F
GOLDN TRIANGLE PTSUNNY   66  54  63 NE12      30.18F
STARKVILLE     MOCLDY    64  54  68 N5        30.15F
TUPELO         CLOUDY    62  53  72 NE9       30.19F
$$

MSZ040-058-182200-
CENTRAL MISSISSIPPI

CITY           SKY/WX    TMP DP  RH WIND       PRES   REMARKS
JACKSON INTL   PTSUNNY   70  55  59 NE8       30.11F
JACKSON HAWKNS CLOUDY    70  54  56 NE9       30.12F
MERIDIAN KEY   CLOUDY    61  54  77 N10       30.13F
MERIDIAN NAS   CLOUDY    61  54  77 N6        30.14F
RAYMOND        FAIR      72  66  83 NE5       30.11F
VICKSBURG      MOSUNNY   76  57  51 NE14      30.11
$$

MSZ059>079-182200-
SOUTH MISSISSIPPI

CITY           SKY/WX    TMP DP  RH WIND       PRES   REMARKS
BROOKHAVEN     MOCLDY    72  57  60 N9        30.11F
COLUMBIA       MOCLDY    70  57  64 MISG      30.08S
HATTIESBURG    LGT RAIN  59  57  93 N9        30.11F FOG
MCCOMB         PTSUNNY   73  54  51 NE7       30.08F
NATCHEZ        PTSUNNY   73  57  56 N12       30.09F
PINE BELT      CLOUDY    63  55  77 N15       30.11F
$$

MSZ080>082-182200-
COASTAL MISSISSIPPI

CITY           SKY/WX    TMP DP  RH WIND       PRES   REMARKS
BAY ST LOUIS     N/A     64  57  77 N14G21    30.06F
BILOXI         CLOUDY    64  60  85 N17       30.04S
PASCAGOULA     CLOUDY    62  57  83 N16G22    30.04S
GULFPORT       CLOUDY    66  57  72 N16G26    30.04S
$$



USA.gov is the U.S. government's official web portal to all federal, state and local government web resources and services.